Location: Haliburton Scout Reserve
(45.0900°N, 78.3200°W)
Time: 04:52:46
(UTC-05:00)

Courier 1B - All Passes

Search period start: 29 November 2023 00:00
Search period end: 09 December 2023 00:00
Orbit: 962 x 1208 km, 28.3° (Epoch: 28 November)

Date Brightness Start Highest point End Pass type
(mag) Time Alt. Az. Time Alt. Az. Time Alt. Az.
29 Nov - 11:10:24 10° SSE 11:11:12 10° SSE 11:12:01 10° SSE daylight
29 Nov - 12:59:58 10° SSW 13:03:56 17° S 13:07:57 10° SE daylight
29 Nov - 14:53:01 10° SW 14:56:46 16° S 15:00:37 10° SSE daylight
30 Nov - 12:06:47 10° SSW 12:10:27 16° S 12:14:08 10° SE daylight
30 Nov - 13:59:19 10° SW 14:03:17 17° S 14:07:18 10° SSE daylight
30 Nov - 15:55:07 10° SSW 15:56:04 10° SSW 15:57:00 10° S daylight
01 Dec - 11:13:46 10° SSW 11:16:59 14° SSE 11:20:11 10° SE daylight
01 Dec - 13:05:45 10° SW 13:09:47 17° S 13:13:51 10° SE daylight
01 Dec - 15:00:04 10° SW 15:02:35 12° SSW 15:05:07 10° S daylight
02 Dec - 10:21:03 10° S 10:23:30 12° SSE 10:25:57 10° SE daylight
02 Dec - 12:12:15 10° SW 12:16:18 17° S 12:20:19 10° SE daylight
02 Dec - 14:05:53 10° SW 14:09:06 14° SSW 14:12:21 10° SSE daylight
03 Dec - 09:29:25 10° SSE 09:30:02 10° SSE 09:30:41 10° SSE daylight
03 Dec - 11:18:51 10° SSW 11:22:48 17° S 11:26:43 10° SE daylight
03 Dec - 13:11:58 10° SW 13:15:37 16° S 13:19:18 10° SSE daylight
04 Dec - 10:25:34 10° SSW 10:29:19 16° S 10:33:00 10° SE daylight
04 Dec - 12:18:11 10° SW 12:22:08 17° S 12:26:04 10° SSE daylight
04 Dec - 14:14:12 10° SSW 14:14:53 10° SSW 14:15:33 10° SSW daylight
05 Dec - 09:32:26 10° SSW 09:35:49 14° SSE 09:39:08 10° SE daylight
05 Dec - 11:24:31 10° SW 11:28:39 17° S 11:32:43 10° SE daylight
05 Dec - 13:18:54 10° SW 13:21:25 12° SSW 13:23:56 10° S daylight
06 Dec - 08:39:35 10° S 08:42:19 13° SSE 08:45:00 10° SE daylight
06 Dec - 10:30:56 10° SW 10:35:09 18° S 10:39:17 10° SE daylight
06 Dec - 12:24:37 10° SW 12:27:57 14° SSW 12:31:16 10° SSE daylight
07 Dec - 07:47:26 10° S 07:48:48 11° SSE 07:50:10 10° SSE daylight
07 Dec - 09:37:25 10° SSW 09:41:38 17° S 09:45:44 10° SE daylight
07 Dec - 11:30:37 10° SW 11:34:28 16° S 11:38:17 10° SSE daylight
08 Dec - 08:44:01 10° SSW 08:48:06 16° S 08:52:04 10° SE daylight
08 Dec - 10:36:44 10° SW 10:40:59 18° S 10:45:08 10° SE daylight
08 Dec - 12:32:16 10° SSW 12:33:43 11° SSW 12:35:09 10° S daylight
